This is the latest recevied weather packets stored in our database for station/object DN9EM-2. If no packets are shown the sender has not sent any weather packets the latest 10 day(s).
| Time | Temp. | Humidity | Pressure | Rain* | Wind** | Luminosity | Snow |
|---|---|---|---|---|---|---|---|
| 1777299035 | 12.78° C | 56% | 1026.3 hPa | 0 mm | - | - | - |
| 1777298432 | 12.78° C | 57% | 1026.2 hPa | 0 mm | - | - | - |
| 1777297859 | 12.78° C | 56% | 1026.4 hPa | 0 mm | - | - | - |
| 1777297257 | 12.78° C | 58% | 1026.5 hPa | 0 mm | - | - | - |
| 1777296654 | 12.22° C | 58% | 1026.5 hPa | 0 mm | - | - | - |
| 1777296051 | 12.22° C | 59% | 1026.5 hPa | 0 mm | - | - | - |
| 1777295450 | 12.22° C | 58% | 1026.6 hPa | 0 mm | - | - | - |
| 1777294846 | 11.67° C | 58% | 1026.8 hPa | 0 mm | - | - | - |
| 1777294244 | 11.67° C | 59% | 1026.8 hPa | 0 mm | - | - | - |
| 1777293641 | 11.11° C | 59% | 1026.9 hPa | 0 mm | - | - | - |
| 1777293038 | 11.11° C | 60% | 1027 hPa | 0 mm | - | - | - |
| 1777292436 | 11.67° C | 61% | 1027 hPa | 0 mm | - | - | - |
| 1777291833 | 11.11° C | 61% | 1027 hPa | 0 mm | - | - | - |
| 1777291230 | 11.11° C | 61% | 1027 hPa | 0 mm | - | - | - |
| 1777290627 | 11.11° C | 59% | 1027.1 hPa | 0 mm | - | - | - |
| 1777290025 | 11.11° C | 61% | 1027.1 hPa | 0 mm | - | - | - |
| 1777289422 | 10.56° C | 62% | 1027.1 hPa | 0 mm | - | - | - |
| 1777288819 | 10.56° C | 62% | 1027.1 hPa | 0 mm | - | - | - |
| 1777288217 | 10.56° C | 62% | 1027 hPa | 0 mm | - | - | - |
| 1777287674 | 10.56° C | 62% | 1027 hPa | 0 mm | - | - | - |
| 1777287071 | 10° C | 62% | 1027.2 hPa | 0 mm | - | - | - |
| 1777286468 | 10° C | 62% | 1027.1 hPa | 0 mm | - | - | - |
| 1777285866 | 10° C | 61% | 1027.1 hPa | 0 mm | - | - | - |
| 1777285263 | 10° C | 62% | 1027.1 hPa | 0 mm | - | - | - |
| 1777284660 | 9.44° C | 63% | 1027.2 hPa | 0 mm | - | - | - |
* Rain latest hour (hover to see other rain measurements)
** Current wind speed in m/s (hover to see current wind gust speed)